Zurück zum Katalog

ONEWEB-0627

AktivKommunikationPO
NORAD 55168·PAYLOAD·🇬🇧 United Kingdom

Gestartet Jan 10, 2023 von Cape Canaveral Space Force Station

Loading…

Nächste Überflüge (nächste 24 Stunden)

TLE

AktuellSource: CelesTrak SupGP

Epoche: Sep 14, 2026, 16:34 UTC

1 55168C 23004AE  26257.69045556  .00001750  00000+0  45138-2 0  2578
2 55168  87.9203 348.1006 0002124 114.5572 358.0954 13.17647569    16

Verfolge ONEWEB-0627 in Echtzeit mit AllMySat

Download on the App Store